sat.trackr.live / text

‹ back to catalog

STARLINK-6199

NORAD 56551 · 2023-065BA

PAYLOAD ACTIVE UNKNOWN

§ Identity

Operator
Country
US
Launch date
2023-05-14
Launch site
AFETR
Launch vehicle
Mass (kg)
RCS (m²)

Purposes: comms

External: N2YO · Heavens-Above · Gunter

§ Orbital elements

Epoch: 2026-05-25T01:49:46.157088Z

Period
94.27 min
Inclination
43.0040°
Eccentricity
0.0001391
Mean motion
15.27578493 rev/d
Perigee alt
482.1 km
Apogee alt
484.0 km
Semi-major
6,861.2 km
B*
1.8807e-5
RAAN
152.2588°
Arg perigee
289.1322°
Mean anomaly
70.9379°
Rev number
16,815

§ Raw data

STARLINK-61991 56551U 23065BA  26145.07622867  .00000255  00000+0  18807-4 0  99932 56551  43.0040 152.2588 0001391 289.1322  70.9379 15.27578493168154

JSON: /api/v1/satellites/56551 · /tle

For live sub-satellite position, see the globe view (requires WebGL).

§ Visibility from observer

Set your observer location to see the next 7 days of passes ≥ 10°. The values pass through the URL so the page stays shareable.

No JS? Fill the form by hand. The geolocation button needs JavaScript.